Location: Balsareny
(41.8670°N, 1.8830°E)
Time: 12:48:38
(UTC+02:00)

X-37B - Visible Passes

Search period start: 25 September 2022 00:00
Search period end: 05 October 2022 00:00
Orbit: 330 x 340 km, 45.0° (Epoch: 02 September)

Date Brightness Start Highest point End Pass type
(mag) Time Alt. Az. Time Alt. Az. Time Alt. Az.
25 Sep 0.5 06:35:09 26° SW 06:36:32 64° SSE 06:39:23 10° ENE visible
26 Sep 3.6 05:23:36 13° E 05:23:36 13° E 05:24:07 10° E visible
26 Sep 0.5 06:54:50 16° W 06:56:59 64° NNW 06:59:50 10° ENE visible
27 Sep 2.4 05:43:15 28° E 05:43:15 28° E 05:44:48 10° ENE visible
27 Sep 1.1 07:14:45 10° W 07:17:32 44° N 07:20:19 10° ENE visible
28 Sep 1.0 06:02:51 53° NE 06:02:51 53° NE 06:05:16 10° ENE visible
29 Sep 1.0 06:22:26 38° NW 06:22:57 44° N 06:25:44 10° ENE visible
30 Sep 1.2 06:42:01 21° WNW 06:43:33 41° N 06:46:19 10° ENE visible
01 Oct 3.5 05:30:24 16° ENE 05:30:24 16° ENE 05:31:10 10° ENE visible
01 Oct 0.9 07:01:37 12° WNW 07:04:08 53° NNE 07:06:57 10° E visible
02 Oct 2.4 05:50:02 28° NE 05:50:02 28° NE 05:51:44 10° ENE visible
02 Oct 0.3 07:21:44 10° WNW 07:24:38 86° SSW 07:27:29 10° ESE visible
03 Oct 1.0 06:09:44 52° NNE 06:09:44 52° NNE 06:12:22 10° E visible
04 Oct 0.2 06:29:29 54° WNW 06:30:03 86° SSW 06:32:54 10° ESE visible
